Weather History for Frederick, MD

Change the Weather History Date:

Tuesday, February 19, 2013

  Actual Average (KHGR) Record (KHGR)
Temperature  
Mean Temperature 34 °F -  
Max Temperature 44 °F 41 °F 64 °F (1997)
Min Temperature 24 °F 25 °F 7 °F (2006)
Degree Days  
Heating Degree Days 31    
Moisture  
Dew Point 26 °F    
Average Humidity 73    
Maximum Humidity 100    
Minimum Humidity 52    
Precipitation  
Precipitation 0.00 in - - ()
Sea Level Pressure  
Sea Level Pressure 29.96 in    
Wind  
Wind Speed 5 mph (SW)    
Max Wind Speed 17 mph    
Max Gust Speed 31 mph    
Visibility 9 miles    
Events Snow    
Averages and records for this station are not official NWS values.
T = Trace of Precipitation, MM = Missing Value Source: NWS Daily Summary

Daily Weather History Graph

Daily Weather History Graph

Search for Another Location

Airport:

Trip Planner

Search our weather history database for the weather conditions in past years. The results will help you decide how hot, cold, wet, or windy it might be!

Date:

Astronomy

Feb. 19, 2013 Rise Set
Actual Time 6:56 AM EST 5:51 PM EST
Civil Twilight 6:28 AM EST 6:18 PM EST
Nautical Twilight 5:57 AM EST 6:49 PM EST
Astronomical Twilight 5:26 AM EST 7:20 PM EST
Moon 12:21 PM EST (2/19) 2:25 AM EST (2/19)
Length of Visible Light 11h 49m
Length of Day
10h 55m
Waxing Gibbous, 67% of the Moon is Illuminated
Feb 19
Waxing Gibbous
Feb 25
Full
Mar 4
Last Quarter
Mar 11
New
Mar 19
First Quarter

Hourly Weather History & Observations

Time (EST) Temp. Windchill Dew Point Humidity Pressure Visibility Wind Dir Wind Speed Gust Speed Precip Events Conditions
12:00 AM 28.4 °F 24.6 °F 19.4 °F 69% 30.16 in 10.0 mi WSW 3.5 mph - N/A   Clear
12:20 AM 28.4 °F 24.6 °F 19.4 °F 69% 30.15 in 10.0 mi WSW 3.5 mph - N/A   Clear
12:40 AM 30.2 °F - 17.6 °F 60% 30.13 in 10.0 mi Calm Calm - N/A   Clear
1:00 AM 26.6 °F 22.6 °F 19.4 °F 74% 30.12 in 10.0 mi WNW 3.5 mph - N/A   Clear
1:20 AM 28.4 °F - 19.4 °F 69% 30.12 in 10.0 mi Calm Calm - N/A   Clear
1:40 AM 28.4 °F - 19.4 °F 69% 30.12 in 10.0 mi Calm Calm - N/A   Clear
2:00 AM 28.4 °F - 19.4 °F 69% 30.12 in 10.0 mi Calm Calm - N/A   Clear
2:20 AM 26.6 °F - 19.4 °F 74% 30.11 in 10.0 mi Calm Calm - N/A   Clear
2:40 AM 30.2 °F 26.7 °F 21.2 °F 69% 30.11 in 10.0 mi South 3.5 mph - N/A   Clear
3:00 AM 26.6 °F - 23.0 °F 86% 30.09 in 10.0 mi Calm Calm - N/A   Clear
3:20 AM 24.8 °F - 21.2 °F 86% 30.07 in 10.0 mi Calm Calm - N/A   Clear
3:40 AM 26.6 °F 22.6 °F 21.2 °F 80% 30.07 in 10.0 mi West 3.5 mph - N/A   Clear
4:00 AM 26.6 °F - 21.2 °F 80% 30.06 in 10.0 mi Calm Calm - N/A   Clear
4:20 AM 26.6 °F - 19.4 °F 74% 30.05 in 10.0 mi Calm Calm - N/A   Clear
4:40 AM 26.6 °F - 23.0 °F 86% 30.05 in 10.0 mi Calm Calm - N/A   Clear
5:00 AM 30.2 °F 26.7 °F 23.0 °F 75% 30.02 in 10.0 mi SSE 3.5 mph - N/A   Clear
5:20 AM 32.0 °F 27.5 °F 23.0 °F 69% 30.02 in 10.0 mi SSE 4.6 mph - N/A   Clear
5:40 AM 32.0 °F 27.5 °F 24.8 °F 75% 30.02 in 10.0 mi South 4.6 mph - N/A   Clear
5:45 AM 33.8 °F 30.8 °F 24.8 °F 70% 30.02 in 10.0 mi South 3.5 mph - N/A   Clear
6:45 AM 35.6 °F 29.9 °F 24.8 °F 65% 30.01 in 10.0 mi South 6.9 mph - N/A   Mostly Cloudy
7:50 AM 37.4 °F 30.8 °F 26.6 °F 65% 29.97 in 10.0 mi SSW 9.2 mph - N/A   Mostly Cloudy
8:45 AM 39.2 °F 30.2 °F 28.4 °F 65% 29.98 in 5.0 mi SSW 17.3 mph - N/A   Unknown
9:10 AM 35.6 °F 26.6 °F 30.2 °F 81% 29.97 in 1.5 mi SSW 13.8 mph 27.6 mph N/A Snow Snow
9:30 AM 35.6 °F 28.0 °F 35.6 °F 100% 29.97 in 3.0 mi SSW 10.4 mph 19.6 mph N/A Snow Light Snow
9:50 AM 35.6 °F 28.6 °F 33.8 °F 93% 29.95 in 4.0 mi South 9.2 mph - N/A Snow Light Snow
10:49 AM 35.6 °F 29.2 °F 35.6 °F 100% 29.93 in 10.0 mi SSW 8.1 mph - N/A   Overcast
11:55 AM 39.2 °F 31.6 °F 37.4 °F 93% 29.88 in 10.0 mi SSW 12.7 mph 19.6 mph N/A   Mostly Cloudy
12:55 PM 39.2 °F 31.6 °F 37.4 °F 93% 29.84 in 10.0 mi SSW 12.7 mph 17.3 mph N/A   Overcast
1:45 PM 41.0 °F 33.9 °F 39.2 °F 93% 29.79 in 10.0 mi SSW 12.7 mph 17.3 mph N/A   Overcast
2:50 PM 42.8 °F 37.0 °F 39.2 °F 87% 29.75 in 10.0 mi SSW 10.4 mph 18.4 mph N/A   Overcast
3:45 PM 44.6 °F 39.2 °F 41.0 °F 87% 29.72 in 10.0 mi SSW 10.4 mph 18.4 mph N/A   Scattered Clouds
4:55 PM 42.8 °F 35.4 °F 39.2 °F 87% 29.76 in 10.0 mi SW 15.0 mph - N/A   Mostly Cloudy
5:55 PM 41.0 °F 34.3 °F 39.2 °F 93% 29.77 in 10.0 mi SW 11.5 mph - N/A   Mostly Cloudy
7:55 PM 41.0 °F 34.3 °F 28.4 °F 61% 29.82 in 10.0 mi WNW 11.5 mph 17.3 mph N/A   Clear
8:00 PM 41.0 °F 34.3 °F 30.2 °F 65% 29.82 in 10.0 mi WNW 11.5 mph - N/A   Clear
8:20 PM 39.2 °F 33.0 °F 28.4 °F 65% 29.83 in 10.0 mi West 9.2 mph 18.4 mph N/A   Clear
8:40 PM 39.2 °F 31.2 °F 28.4 °F 65% 29.84 in 10.0 mi West 13.8 mph 17.3 mph N/A   Clear
9:00 PM 39.2 °F 30.2 °F 24.8 °F 56% 29.85 in 10.0 mi West 17.3 mph 31.1 mph N/A   Clear
9:20 PM 37.4 °F 28.2 °F 23.0 °F 56% 29.86 in 10.0 mi West 16.1 mph 25.3 mph N/A   Clear
9:40 PM 37.4 °F 29.8 °F 23.0 °F 56% 29.87 in 10.0 mi WNW 11.5 mph 27.6 mph N/A   Clear
10:00 PM 37.4 °F 29.8 °F 21.2 °F 52% 29.87 in 10.0 mi West 11.5 mph 18.4 mph N/A   Clear
10:20 PM 37.4 °F 28.5 °F 21.2 °F 52% 29.87 in 10.0 mi West 15.0 mph 20.7 mph N/A   Clear
10:40 PM 35.6 °F 28.6 °F 21.2 °F 56% 29.87 in 10.0 mi West 9.2 mph - N/A   Clear
11:00 PM 35.6 °F 27.5 °F 21.2 °F 56% 29.87 in 10.0 mi WNW 11.5 mph 21.9 mph N/A   Clear
11:20 PM 33.8 °F 28.6 °F 23.0 °F 65% 29.87 in 10.0 mi NW 5.8 mph - N/A   Scattered Clouds
11:40 PM 33.8 °F 24.8 °F 23.0 °F 65% 29.88 in 10.0 mi West 12.7 mph 24.2 mph N/A   Mostly Cloudy